| time (UTC) | temp C | wind direction | speed KPH | gust KPH | rain 1hr cm | rain 24hr cm | rain mn cm | humidity % | barometer mb |
| 20260507135621 | 17 | 315 | 99.8 | 0.0 | 0.00 | 0.00 | 0.00 | 1006.3 | |
| 20260507133804 | 15 | 0 | 222.1 | 0.0 | 0.00 | 0.00 | 0.00 | 1006.3 | |
| 20260507131954 | 16 | 0 | 85.3 | 0.0 | 0.00 | 0.00 | 0.00 | 1002.4 | |
| 20260507130140 | 18 | 222 | 67.6 | 0.0 | 0.00 | 0.00 | 0.00 | 1002.3 | |
| 20260507124326 | 17 | 315 | 104.6 | 0.0 | 0.00 | 0.00 | 0.00 | 1002.1 | |
| 20260507122509 | 18 | 0 | 162.5 | 0.0 | 0.00 | 0.00 | 0.00 | 1005.8 | |
| 20260507120652 | 20 | 0 | 88.5 | 0.0 | 0.00 | 0.00 | 0.00 | 1005.6 | |
| 20260507114836 | 19 | 180 | 178.6 | 0.0 | 0.00 | 0.00 | 0.00 | 1005.6 | |
| 20260507113019 | 18 | 270 | 98.2 | 0.0 | 0.00 | 0.00 | 0.00 | 1005.7 | |
| 20260507111203 | 17 | 0 | 156.1 | 0.0 | 0.00 | 0.00 | 0.00 | 1005.6 | |
| 20260507105346 | 18 | 270 | 66.0 | 0.0 | 0.00 | 0.00 | 0.00 | 1005.6 | |
| 20260507103530 | 18 | 315 | 32.2 | 0.0 | 0.00 | 0.00 | 0.00 | 1005.3 | |
| 20260507101713 | 20 | 270 | 151.3 | 0.0 | 0.00 | 0.00 | 0.00 | 1005.4 | |
| 20260507095858 | 17 | 270 | 51.5 | 0.0 | 0.00 | 0.00 | 0.00 | 1001.5 | |
| 20260507094042 | 17 | 222 | 19.3 | 0.0 | 0.00 | 0.00 | 0.00 | 1067.6 | |
| 20260507092227 | 16 | 222 | 43.5 | 0.0 | 0.00 | 0.00 | 0.00 | 1071.6 | |
| 20260507090412 | 16 | 135 | 90.1 | 0.0 | 0.00 | 0.00 | 0.00 | 1001.5 | |
| 20260507084556 | 16 | 222 | 103.0 | 0.0 | 0.00 | 0.00 | 0.00 | 1001.3 | |
| 20260507082739 | 15 | 222 | 151.3 | 0.0 | 0.00 | 0.00 | 0.00 | 1004.9 | |
| 20260507080923 | 16 | 0 | 91.7 | 0.0 | 0.00 | 0.00 | 0.00 | 1004.7 | |
| 20260507075106 | 15 | 0 | 19.3 | 0.0 | 0.00 | 0.00 | 0.00 | 1004.5 | |
| 20260507073254 | 16 | 270 | 70.8 | 0.0 | 0.00 | 0.00 | 0.00 | 1000.6 | |
| 20260507071449 | 15 | 222 | 128.7 | 0.0 | 0.00 | 0.00 | 0.00 | 1000.3 | |
| 20260507065644 | 14 | 180 | 103.0 | 0.0 | 0.00 | 0.00 | 0.00 | 1000.1 | |
| 20260507063839 | 14 | 0 | 112.7 | 0.0 | 0.00 | 0.00 | 0.00 | 999.9 | |
| 20260507062036 | 13 | 0 | 86.9 | 0.0 | 0.00 | 0.00 | 0.00 | 999.8 | |
| 20260507060231 | 13 | 315 | 64.4 | 0.0 | 0.00 | 0.00 | 0.00 | 999.6 | |
| 20260507054427 | 13 | 270 | 112.7 | 0.0 | 0.00 | 0.00 | 0.00 | 999.3 | |
| 20260507052624 | 13 | 0 | 51.5 | 0.0 | 0.00 | 0.00 | 0.00 | 999.0 | |
| 20260507050811 | 13 | 222 | 62.8 | 0.0 | 0.00 | 0.00 | 0.00 | 1082.8 | |
| 20260507045007 | 12 | 270 | 90.1 | 0.0 | 0.00 | 0.00 | 0.00 | 998.7 | |
| 20260507043156 | 12 | 0 | 30.6 | 0.0 | 0.00 | 0.00 | 0.00 | 998.4 | |
| 20260507041353 | 12 | 0 | 62.8 | 0.0 | 0.00 | 0.00 | 0.00 | 998.3 | |
| 20260507035549 | 12 | 315 | 41.8 | 0.0 | 0.00 | 0.00 | 0.00 | 998.2 | |
| 20260507033746 | 12 | 270 | 20.9 | 0.0 | 0.00 | 0.00 | 0.00 | 998.1 | |
| 20260507031934 | 12 | 0 | 29.0 | 0.0 | 0.00 | 0.00 | 0.00 | 1082.4 | |
| 20260507030119 | 12 | 270 | 49.9 | 0.0 | 0.00 | 0.00 | 0.00 | 1002.4 | |
| 20260507024302 | 12 | 222 | 120.7 | 0.0 | 0.00 | 0.00 | 0.00 | 1002.3 | |
| 20260507022446 | 12 | 0 | 0.0 | 0.0 | 0.00 | 0.00 | 0.00 | 1002.4 | |
| 20260507020629 | 11 | 180 | 0.0 | 0.0 | 0.00 | 0.00 | 0.00 | 1002.2 | |
| 20260507014813 | 11 | 222 | 9.7 | 0.0 | 0.00 | 0.00 | 0.00 | 1002.3 | |
| 20260507011140 | 11 | 180 | 0.0 | 0.0 | 0.00 | 0.00 | 0.00 | 1001.9 | |
| 20260507005324 | 11 | 222 | 11.3 | 0.0 | 0.00 | 0.00 | 0.00 | 1001.7 | |
| 20260507003508 | 12 | 0 | 40.2 | 0.0 | 0.00 | 0.00 | 0.00 | 1001.4 | |
| 20260507001651 | 13 | 270 | 32.2 | 0.0 | 0.00 | 0.00 | 0.00 | 1001.5 | |
| 20260506235835 | 13 | 270 | 53.1 | 0.0 | 0.00 | 0.00 | 0.00 | 1001.8 | |
| 20260506234018 | 13 | 0 | 0.0 | 0.0 | 0.00 | 0.00 | 0.00 | 1001.4 | |
| 20260506232201 | 13 | 222 | 20.9 | 0.0 | 0.00 | 0.00 | 0.00 | 1001.1 | |
| 20260506230345 | 13 | 222 | 19.3 | 0.0 | 0.00 | 0.00 | 0.00 | 1000.8 | |
| 20260506224528 | 13 | 0 | 0.0 | 0.0 | 0.00 | 0.00 | 0.00 | 1000.9 | |
| 20260506222712 | 13 | 222 | 20.9 | 0.0 | 0.00 | 0.00 | 0.00 | 1000.9 | |
| 20260506220855 | 13 | 270 | 35.4 | 0.0 | 0.00 | 0.00 | 0.00 | 1001.2 | |
| 20260506215040 | 13 | 270 | 0.0 | 0.0 | 0.00 | 0.00 | 0.00 | 1001.0 | |
| 20260506213223 | 13 | 0 | 40.2 | 0.0 | 0.00 | 0.00 | 0.00 | 1000.8 | |
| 20260506211407 | 13 | 0 | 30.6 | 0.0 | 0.00 | 0.00 | 0.00 | 1000.6 | |
| 20260506205550 | 13 | 315 | 78.9 | 0.0 | 0.00 | 0.00 | 0.00 | 1000.6 | |
| 20260506203734 | 14 | 270 | 66.0 | 0.0 | 0.00 | 0.00 | 0.00 | 1000.5 | |
| 20260506201917 | 14 | 315 | 0.0 | 0.0 | 0.00 | 0.00 | 0.00 | 1000.4 | |
| 20260506200101 | 15 | 222 | 8.0 | 0.0 | 0.05 | 0.00 | 0.00 | 999.7 | |
| 20260506194244 | 15 | 0 | 11.3 | 0.0 | 0.03 | 0.00 | 0.00 | 999.6 | |
| 20260506192428 | 16 | 0 | 9.7 | 0.0 | 0.00 | 0.00 | 0.00 | 999.7 | |
| 20260506190611 | 17 | 180 | 46.7 | 0.0 | 0.00 | 0.00 | 0.00 | 999.7 | |
| 20260506184754 | 17 | 222 | 33.8 | 0.0 | 0.00 | 0.00 | 0.00 | 999.2 | |
| 20260506182938 | 17 | 0 | 22.5 | 0.0 | 0.00 | 0.00 | 0.00 | 998.4 | |
| 20260506181122 | 17 | 270 | 35.4 | 0.0 | 0.00 | 0.00 | 0.00 | 994.7 | |
| 20260506175306 | 19 | 90 | 22.5 | 0.0 | 0.00 | 0.00 | 0.00 | 994.7 | |
| 20260506173448 | 21 | 135 | 48.3 | 0.0 | 0.00 | 0.00 | 0.00 | 994.6 | |
| 20260506171630 | 22 | 90 | 33.8 | 0.0 | 0.00 | 0.00 | 0.00 | 994.7 | |
| 20260506165813 | 22 | 90 | 29.0 | 0.0 | 0.00 | 0.00 | 0.00 | 997.7 | |
| 20260506163956 | 22 | 135 | 62.8 | 0.0 | 0.00 | 0.00 | 0.00 | 997.7 | |
| 20260506162140 | 25 | 90 | 51.5 | 0.0 | 0.20 | 0.00 | 0.00 | 997.7 | |
| 20260506160320 | 26 | 90 | 57.9 | 0.0 | 0.20 | 0.00 | 0.00 | 994.9 | |
| 20260506154503 | 20 | 45 | 123.9 | 0.0 | 0.20 | 0.00 | 0.00 | 998.1 | |
| 20260506152646 | 20 | 90 | 54.7 | 0.0 | 0.18 | 0.00 | 0.00 | 998.5 | |
| 20260506150830 | 23 | 90 | 56.3 | 0.0 | 0.00 | 0.00 | 0.00 | 998.6 | |
| 20260506145013 | 22 | 90 | 106.2 | 0.0 | 0.00 | 0.00 | 0.00 | 998.8 | |
| 20260506143157 | 23 | 90 | 8.0 | 0.0 | 0.00 | 0.00 | 0.00 | 998.9 | |
| 20260506141340 | 21 | 0 | 27.4 | 0.0 | 0.00 | 0.00 | 0.00 | 999.1 |